| time (UTC) | temp F | wind direction | speed MPH | gust MPH | rain 1hr in | rain 24hr in | rain mn in | humidity % | barometer mb |
| 20260507180745 | 50 | 0.0 | 0.0 | 0.00 | 0.00 | 0.00 | 90 | 1015.7 | |
| 20260507175745 | 50 | 0.0 | 0.0 | 0.00 | 0.00 | 0.00 | 91 | 1015.5 | |
| 20260507174745 | 50 | 0.0 | 0.0 | 0.00 | 0.00 | 0.00 | 91 | 1015.3 | |
| 20260507173745 | 50 | 0.0 | 0.0 | 0.00 | 0.00 | 0.00 | 92 | 1015.3 | |
| 20260507172745 | 51 | 0.0 | 0.0 | 0.00 | 0.00 | 0.00 | 90 | 1015.4 | |
| 20260507171745 | 51 | 0.0 | 0.0 | 0.00 | 0.00 | 0.00 | 90 | 1015.5 | |
| 20260507170745 | 51 | 0.0 | 0.0 | 0.00 | 0.00 | 0.00 | 89 | 1015.5 | |
| 20260507165745 | 51 | 0.0 | 0.0 | 0.00 | 0.00 | 0.00 | 87 | 1015.4 | |
| 20260507164745 | 51 | 0.0 | 0.0 | 0.00 | 0.00 | 0.00 | 87 | 1015.3 | |
| 20260507163745 | 51 | 0.0 | 0.0 | 0.00 | 0.00 | 0.00 | 90 | 1015.3 | |
| 20260507162745 | 51 | 0.0 | 0.0 | 0.00 | 0.00 | 0.00 | 89 | 1015.1 | |
| 20260507161745 | 51 | 0.0 | 0.0 | 0.00 | 0.00 | 0.00 | 89 | 1014.9 | |
| 20260507160745 | 52 | 0.0 | 0.0 | 0.00 | 0.00 | 0.00 | 88 | 1014.8 | |
| 20260507155746 | 52 | 0.0 | 0.0 | 0.00 | 0.00 | 0.00 | 87 | 1014.7 | |
| 20260507154745 | 52 | 0.0 | 0.0 | 0.00 | 0.00 | 0.00 | 89 | 1014.6 | |
| 20260507153745 | 52 | 0.0 | 0.0 | 0.00 | 0.00 | 0.00 | 91 | 1014.6 | |
| 20260507152745 | 52 | 0.0 | 0.0 | 0.00 | 0.00 | 0.00 | 91 | 1014.5 | |
| 20260507151746 | 53 | 0.0 | 0.0 | 0.00 | 0.00 | 0.00 | 90 | 1014.4 | |
| 20260507150745 | 53 | 0.0 | 0.0 | 0.00 | 0.00 | 0.00 | 90 | 1014.2 | |
| 20260507145746 | 53 | 0.0 | 0.0 | 0.00 | 0.00 | 0.00 | 89 | 1014.2 | |
| 20260507144750 | 54 | 0.0 | 0.0 | 0.00 | 0.00 | 0.00 | 88 | 1014.0 | |
| 20260507143745 | 54 | 0.0 | 0.0 | 0.00 | 0.00 | 0.00 | 87 | 1014.0 | |
| 20260507142745 | 54 | 0.0 | 0.0 | 0.00 | 0.00 | 0.00 | 87 | 1013.9 | |
| 20260507141745 | 54 | 0.0 | 0.0 | 0.00 | 0.00 | 0.00 | 86 | 1013.8 | |
| 20260507140745 | 54 | 0.0 | 0.0 | 0.00 | 0.00 | 0.00 | 88 | 1013.7 | |
| 20260507135745 | 54 | 0.0 | 0.0 | 0.00 | 0.00 | 0.00 | 90 | 1013.8 | |
| 20260507134745 | 53 | 0.0 | 0.0 | 0.00 | 0.00 | 0.00 | 87 | 1013.7 | |
| 20260507133745 | 54 | 0.0 | 0.0 | 0.00 | 0.00 | 0.00 | 89 | 1013.5 | |
| 20260507132746 | 54 | 0.0 | 0.0 | 0.00 | 0.00 | 0.00 | 88 | 1013.5 | |
| 20260507131745 | 54 | 0.0 | 0.0 | 0.00 | 0.00 | 0.00 | 87 | 1013.5 | |
| 20260507130745 | 54 | 0.0 | 0.0 | 0.00 | 0.00 | 0.00 | 89 | 1013.3 | |
| 20260507125745 | 54 | 0.0 | 0.0 | 0.00 | 0.00 | 0.00 | 88 | 1013.3 | |
| 20260507124747 | 54 | 0.0 | 0.0 | 0.00 | 0.00 | 0.00 | 86 | 1013.3 | |
| 20260507123745 | 54 | 0.0 | 0.0 | 0.00 | 0.00 | 0.00 | 86 | 1013.2 | |
| 20260507122745 | 55 | 0.0 | 0.0 | 0.00 | 0.00 | 0.00 | 84 | 1013.1 | |
| 20260507121745 | 56 | 0.0 | 0.0 | 0.00 | 0.00 | 0.00 | 83 | 1012.8 | |
| 20260507120745 | 56 | 0.0 | 0.0 | 0.00 | 0.00 | 0.00 | 84 | 1012.7 | |
| 20260507115745 | 55 | 0.0 | 0.0 | 0.00 | 0.00 | 0.00 | 84 | 1012.7 | |
| 20260507114749 | 55 | 0.0 | 0.0 | 0.00 | 0.00 | 0.00 | 87 | 1012.7 | |
| 20260507113744 | 55 | 0.0 | 0.0 | 0.00 | 0.00 | 0.00 | 87 | 1012.5 | |
| 20260507112744 | 55 | 0.0 | 0.0 | 0.00 | 0.00 | 0.00 | 86 | 1012.5 | |
| 20260507111744 | 55 | 0.0 | 0.0 | 0.00 | 0.00 | 0.00 | 86 | 1012.4 | |
| 20260507110744 | 55 | 0.0 | 0.0 | 0.00 | 0.00 | 0.00 | 87 | 1012.2 | |
| 20260507105744 | 55 | 0.0 | 0.0 | 0.00 | 0.00 | 0.00 | 87 | 1012.2 | |
| 20260507104744 | 56 | 0.0 | 0.0 | 0.00 | 0.00 | 0.00 | 85 | 1012.1 | |
| 20260507103744 | 57 | 0.0 | 0.0 | 0.00 | 0.00 | 0.00 | 84 | 1012.0 | |
| 20260507102744 | 57 | 0.0 | 0.0 | 0.00 | 0.00 | 0.00 | 83 | 1012.0 | |
| 20260507101744 | 57 | 0.0 | 0.0 | 0.00 | 0.00 | 0.00 | 87 | 1012.0 | |
| 20260507100745 | 57 | 0.0 | 0.0 | 0.00 | 0.00 | 0.00 | 86 | 1011.9 | |
| 20260507095744 | 57 | 0.0 | 0.0 | 0.00 | 0.00 | 0.00 | 83 | 1011.9 | |
| 20260507094744 | 58 | 0.0 | 0.0 | 0.00 | 0.00 | 0.00 | 83 | 1011.7 | |
| 20260507093744 | 57 | 0.0 | 0.0 | 0.00 | 0.00 | 0.00 | 82 | 1011.6 | |
| 20260507092744 | 57 | 0.0 | 0.0 | 0.00 | 0.00 | 0.00 | 81 | 1011.6 | |
| 20260507091744 | 57 | 0.0 | 0.0 | 0.00 | 0.00 | 0.00 | 81 | 1011.5 | |
| 20260507090744 | 57 | 0.0 | 0.0 | 0.00 | 0.00 | 0.00 | 84 | 1011.4 | |
| 20260507085745 | 56 | 0.0 | 0.0 | 0.00 | 0.00 | 0.00 | 83 | 1011.5 | |
| 20260507084744 | 56 | 0.0 | 0.0 | 0.00 | 0.00 | 0.00 | 86 | 1011.4 | |
| 20260507083744 | 55 | 0.0 | 0.0 | 0.00 | 0.00 | 0.00 | 87 | 1011.3 | |
| 20260507082744 | 55 | 0.0 | 0.0 | 0.00 | 0.00 | 0.00 | 85 | 1011.2 | |
| 20260507081744 | 55 | 0.0 | 0.0 | 0.00 | 0.00 | 0.00 | 86 | 1011.1 | |
| 20260507080744 | 55 | 0.0 | 0.0 | 0.00 | 0.00 | 0.00 | 87 | 1011.0 | |
| 20260507075744 | 55 | 0.0 | 0.0 | 0.00 | 0.00 | 0.00 | 89 | 1010.8 | |
| 20260507074744 | 54 | 0.0 | 0.0 | 0.00 | 0.00 | 0.00 | 89 | 1010.8 | |
| 20260507073744 | 54 | 0.0 | 0.0 | 0.00 | 0.00 | 0.00 | 90 | 1010.6 | |
| 20260507072745 | 53 | 0.0 | 0.0 | 0.00 | 0.00 | 0.00 | 90 | 1010.6 | |
| 20260507071744 | 53 | 0.0 | 0.0 | 0.00 | 0.00 | 0.00 | 91 | 1010.6 | |
| 20260507070744 | 53 | 0.0 | 0.0 | 0.00 | 0.00 | 0.00 | 91 | 1010.5 | |
| 20260507065744 | 53 | 0.0 | 0.0 | 0.00 | 0.00 | 0.00 | 91 | 1010.5 | |
| 20260507064744 | 53 | 0.0 | 0.0 | 0.00 | 0.00 | 0.00 | 91 | 1010.4 | |
| 20260507063744 | 53 | 0.0 | 0.0 | 0.00 | 0.00 | 0.00 | 92 | 1010.3 | |
| 20260507062744 | 53 | 0.0 | 0.0 | 0.00 | 0.00 | 0.00 | 92 | 1010.2 | |
| 20260507061744 | 53 | 0.0 | 0.0 | 0.00 | 0.00 | 0.00 | 91 | 1010.1 | |
| 20260507060744 | 52 | 0.0 | 0.0 | 0.00 | 0.00 | 0.00 | 94 | 1009.9 | |
| 20260507055744 | 53 | 0.0 | 0.0 | 0.00 | 0.00 | 0.00 | 95 | 1009.9 | |
| 20260507054744 | 53 | 0.0 | 0.0 | 0.00 | 0.00 | 0.00 | 94 | 1009.8 | |
| 20260507053744 | 53 | 0.0 | 0.0 | 0.00 | 0.00 | 0.00 | 92 | 1009.8 | |
| 20260507052744 | 53 | 0.0 | 0.0 | 0.00 | 0.00 | 0.00 | 91 | 1009.6 | |
| 20260507051744 | 53 | 0.0 | 0.0 | 0.00 | 0.00 | 0.00 | 90 | 1009.5 | |
| 20260507050744 | 53 | 0.0 | 0.0 | 0.00 | 0.00 | 0.00 | 92 | 1009.4 | |
| 20260507045744 | 53 | 0.0 | 0.0 | 0.00 | 0.00 | 0.00 | 91 | 1009.3 | |
| 20260507044744 | 53 | 0.0 | 0.0 | 0.00 | 0.00 | 0.00 | 91 | 1009.3 | |
| 20260507043744 | 52 | 0.0 | 0.0 | 0.00 | 0.00 | 0.00 | 92 | 1009.2 | |
| 20260507042744 | 53 | 0.0 | 0.0 | 0.00 | 0.00 | 0.00 | 92 | 1009.2 | |
| 20260507041744 | 53 | 0.0 | 0.0 | 0.00 | 0.00 | 0.00 | 93 | 1009.1 | |
| 20260507040744 | 53 | 0.0 | 0.0 | 0.00 | 0.00 | 0.00 | 93 | 1009.1 | |
| 20260507034744 | 53 | 0.0 | 0.0 | 0.00 | 0.00 | 0.00 | 93 | 1008.9 | |
| 20260507033744 | 53 | 0.0 | 0.0 | 0.00 | 0.00 | 0.00 | 94 | 1008.9 | |
| 20260507032744 | 53 | 0.0 | 0.0 | 0.00 | 0.00 | 0.00 | 95 | 1009.0 | |
| 20260507031744 | 53 | 0.0 | 0.0 | 0.00 | 0.00 | 0.00 | 95 | 1008.9 | |
| 20260507030744 | 53 | 0.0 | 0.0 | 0.00 | 0.00 | 0.00 | 96 | 1008.9 | |
| 20260507025744 | 53 | 0.0 | 0.0 | 0.00 | 0.00 | 0.00 | 95 | 1008.8 | |
| 20260507024744 | 53 | 0.0 | 0.0 | 0.00 | 0.00 | 0.00 | 96 | 1008.8 | |
| 20260507023744 | 53 | 0.0 | 0.0 | 0.00 | 0.00 | 0.00 | 95 | 1008.6 | |
| 20260507022744 | 53 | 0.0 | 0.0 | 0.00 | 0.00 | 0.00 | 94 | 1008.6 | |
| 20260507021744 | 53 | 0.0 | 0.0 | 0.00 | 0.00 | 0.00 | 94 | 1008.5 | |
| 20260507020744 | 53 | 0.0 | 0.0 | 0.00 | 0.00 | 0.00 | 93 | 1008.3 | |
| 20260507015744 | 53 | 0.0 | 0.0 | 0.00 | 0.00 | 0.00 | 92 | 1008.3 | |
| 20260507014744 | 53 | 0.0 | 0.0 | 0.00 | 0.00 | 0.00 | 91 | 1008.2 | |
| 20260507013744 | 53 | 0.0 | 0.0 | 0.00 | 0.00 | 0.00 | 91 | 1008.2 | |
| 20260507012744 | 54 | 0.0 | 0.0 | 0.00 | 0.00 | 0.00 | 93 | 1008.2 | |
| 20260507011744 | 54 | 0.0 | 0.0 | 0.00 | 0.00 | 0.00 | 95 | 1008.2 | |
| 20260507010744 | 54 | 0.0 | 0.0 | 0.00 | 0.00 | 0.00 | 95 | 1008.3 | |
| 20260507005744 | 54 | 0.0 | 0.0 | 0.00 | 0.00 | 0.00 | 95 | 1008.1 | |
| 20260507004744 | 54 | 0.0 | 0.0 | 0.00 | 0.00 | 0.00 | 94 | 1008.0 | |
| 20260507003744 | 54 | 0.0 | 0.0 | 0.00 | 0.00 | 0.00 | 95 | 1007.9 | |
| 20260507002744 | 55 | 0.0 | 0.0 | 0.00 | 0.00 | 0.00 | 96 | 1007.9 | |
| 20260507001744 | 55 | 0.0 | 0.0 | 0.00 | 0.00 | 0.00 | 96 | 1007.9 | |
| 20260507000744 | 55 | 0.0 | 0.0 | 0.00 | 0.00 | 0.00 | 95 | 1007.8 | |
| 20260506235744 | 56 | 0.0 | 0.0 | 0.00 | 0.00 | 0.00 | 95 | 1007.9 | |
| 20260506234747 | 55 | 0.0 | 0.0 | 0.00 | 0.00 | 0.00 | 95 | 1007.8 | |
| 20260506233743 | 56 | 0.0 | 0.0 | 0.00 | 0.00 | 0.00 | 94 | 1007.6 | |
| 20260506232743 | 56 | 0.0 | 0.0 | 0.00 | 0.00 | 0.00 | 96 | 1007.3 | |
| 20260506231743 | 56 | 0.0 | 0.0 | 0.00 | 0.00 | 0.00 | 96 | 1007.2 | |
| 20260506225743 | 56 | 0.0 | 0.0 | 0.00 | 0.00 | 0.00 | 96 | 1007.3 | |
| 20260506224743 | 56 | 0.0 | 0.0 | 0.00 | 0.00 | 0.00 | 94 | 1007.4 | |
| 20260506223743 | 56 | 0.0 | 0.0 | 0.00 | 0.00 | 0.00 | 92 | 1007.3 | |
| 20260506222743 | 57 | 0.0 | 0.0 | 0.00 | 0.00 | 0.00 | 92 | 1007.3 | |
| 20260506221743 | 57 | 0.0 | 0.0 | 0.00 | 0.00 | 0.00 | 92 | 1007.1 | |
| 20260506220743 | 56 | 0.0 | 0.0 | 0.00 | 0.00 | 0.00 | 92 | 1006.8 | |
| 20260506215743 | 56 | 0.0 | 0.0 | 0.00 | 0.00 | 0.00 | 92 | 1006.6 | |
| 20260506214743 | 56 | 0.0 | 0.0 | 0.00 | 0.00 | 0.00 | 92 | 1006.8 | |
| 20260506213743 | 56 | 0.0 | 0.0 | 0.00 | 0.00 | 0.00 | 92 | 1006.8 | |
| 20260506212743 | 56 | 0.0 | 0.0 | 0.00 | 0.00 | 0.00 | 92 | 1006.7 | |
| 20260506211743 | 56 | 0.0 | 0.0 | 0.00 | 0.00 | 0.00 | 91 | 1006.7 | |
| 20260506210743 | 56 | 0.0 | 0.0 | 0.00 | 0.00 | 0.00 | 91 | 1006.5 | |
| 20260506205743 | 57 | 0.0 | 0.0 | 0.00 | 0.00 | 0.00 | 91 | 1006.4 | |
| 20260506204742 | 57 | 0.0 | 0.0 | 0.00 | 0.00 | 0.00 | 90 | 1006.4 | |
| 20260506203743 | 57 | 0.0 | 0.0 | 0.00 | 0.00 | 0.00 | 91 | 1006.4 | |
| 20260506202743 | 57 | 0.0 | 0.0 | 0.00 | 0.00 | 0.00 | 91 | 1006.5 | |
| 20260506201743 | 57 | 0.0 | 0.0 | 0.00 | 0.00 | 0.00 | 90 | 1006.4 | |
| 20260506200743 | 57 | 0.0 | 0.0 | 0.00 | 0.00 | 0.00 | 90 | 1006.2 | |
| 20260506195743 | 58 | 0.0 | 0.0 | 0.00 | 0.00 | 0.00 | 88 | 1006.1 | |
| 20260506194743 | 58 | 0.0 | 0.0 | 0.00 | 0.00 | 0.00 | 87 | 1006.1 | |
| 20260506193743 | 59 | 0.0 | 0.0 | 0.00 | 0.00 | 0.00 | 85 | 1005.8 | |
| 20260506192742 | 60 | 0.0 | 0.0 | 0.00 | 0.00 | 0.00 | 81 | 1005.6 | |
| 20260506191742 | 61 | 0.0 | 0.0 | 0.00 | 0.00 | 0.00 | 76 | 1005.9 | |
| 20260506190744 | 62 | 0.0 | 0.0 | 0.00 | 0.00 | 0.00 | 72 | 1005.9 | |
| 20260506185743 | 63 | 0.0 | 0.0 | 0.00 | 0.00 | 0.00 | 66 | 1005.8 | |
| 20260506184743 | 64 | 0.0 | 0.0 | 0.00 | 0.00 | 0.00 | 56 | 1005.4 | |
| 20260506183742 | 64 | 0.0 | 0.0 | 0.00 | 0.00 | 0.00 | 58 | 1005.2 | |
| 20260506182743 | 65 | 0.0 | 0.0 | 0.00 | 0.00 | 0.00 | 54 | 1005.0 | |
| 20260506181743 | 65 | 0.0 | 0.0 | 0.00 | 0.00 | 0.00 | 53 | 1004.9 |